カタログに戻る

BEIDOU 10

運用中ナビゲーションMEO
NORAD 37948·PAYLOAD·🇨🇳 China

打ち上げ Dec 1, 2011 から Xichang Satellite Launch Center

Loading…

次のパス (今後24時間)

TLE

最新Source: Space-Track

元期: Sep 10, 2026, 19:05 UTC

1 37948U 11073A   26253.79533384 -.00000160  00000-0  00000-0 0  9991
2 37948  47.5267 270.4734 0116652 224.1508 237.2700  1.00279182 53991

AllMySatでBEIDOU 10をリアルタイム追跡

Download on the App Store